Weather History for Frenchville, ME

Change the Weather History Date:

Wednesday, February 13, 2013

  Actual Average Record
Temperature  
Mean Temperature -4 °C -11 °C  
Max Temperature -3 °C -6 °C 2 °C (1999)
Min Temperature -6 °C -16 °C -27 °C (2003)
Degree Days  
Heating Degree Days 40    
Month to date heating degree days 749  
Since 1 July heating degree days 5856  
Cooling Degree Days 0    
Month to date cooling degree days 0  
Year to date cooling degree days 0  
Moisture  
Dew Point -7 °C    
Average Humidity 81    
Maximum Humidity 92    
Minimum Humidity 72    
Precipitation  
Precipitation T mm 0.76 mm 0.56 mm (2008)
Month to date precipitation 0.12 0.28  
Year to date precipitation 1.10 2.04  
Snow  
Snow 0.00 cm - - ()
Month to date snowfall 0.0  
Snow Depth 0.00 cm    
Sea Level Pressure  
Sea Level Pressure 1005 hPa    
Wind  
Wind Speed 9 km/h (NW)    
Max Wind Speed 23 km/h    
Max Gust Speed 29 km/h    
Visibility 15 kilometers    
Events Snow    
T = Trace of Precipitation, MM = Missing Value Source: NWS Daily Summary

Daily Weather History Graph

Daily Weather History Graph

Search for Another Location

Airport:

Trip Planner

Search our weather history database for the weather conditions in past years. The results will help you decide how hot, cold, wet, or windy it might be!

Date:

Astronomy

Feb. 13, 2013 Rise Set
Actual Time 6:41 AM EST 4:54 PM EST
Civil Twilight 6:09 AM EST 5:26 PM EST
Nautical Twilight 5:33 AM EST 6:02 PM EST
Astronomical Twilight 4:58 AM EST 6:37 PM EST
Moon 7:50 AM EST (2/13) 9:14 PM EST (2/13)
Length of Visible Light 11h 16m
Length of Day
10h 13m
Waxing Crescent, 13% of the Moon is Illuminated
Feb 13
Waxing Crescent
Feb 17
First Quarter
Feb 25
Full
Mar 4
Last Quarter
Mar 11
New

Hourly Weather History & Observations

Time (EST) Temp. Windchill Dew Point Humidity Pressure Visibility Wind Dir Wind Speed Gust Speed Precip Events Conditions
12:53 AM -2.8 °C -6.4 °C -5.6 °C 81% 1002.8 hPa 16.1 km WNW 9.3 km/h / 2.6 m/s - N/A   Overcast
1:53 AM -3.3 °C -6.4 °C -5.0 °C 88% 1003.0 hPa 8.0 km NW 7.4 km/h / 2.1 m/s - 0.0 mm Snow Light Snow
2:06 AM -3.0 °C -6.0 °C -5.0 °C 86% 1002.3 hPa 11.3 km WNW 7.4 km/h / 2.1 m/s - 0.0 mm   Overcast
2:53 AM -3.3 °C -6.4 °C -5.0 °C 88% 1002.8 hPa 16.1 km NNW 7.4 km/h / 2.1 m/s - 0.0 mm   Overcast
3:16 AM -3.0 °C -7.6 °C -6.0 °C 80% 1001.6 hPa 16.1 km NNW 13.0 km/h / 3.6 m/s - N/A   Overcast
3:53 AM -3.9 °C -7.1 °C -5.6 °C 88% 1003.2 hPa 16.1 km NNW 7.4 km/h / 2.1 m/s - N/A   Overcast
4:07 AM -4.0 °C -7.8 °C -6.0 °C 86% 1002.3 hPa 16.1 km NW 9.3 km/h / 2.6 m/s - N/A   Overcast
4:36 AM -4.0 °C -9.7 °C -6.0 °C 86% 1002.3 hPa 16.1 km NNW 16.7 km/h / 4.6 m/s - N/A   Overcast
4:49 AM -4.0 °C -9.3 °C -6.0 °C 86% 1002.3 hPa 16.1 km NW 14.8 km/h / 4.1 m/s - N/A   Overcast
4:53 AM -3.9 °C -8.7 °C -6.1 °C 85% 1003.6 hPa 16.1 km NNW 13.0 km/h / 3.6 m/s - N/A   Overcast
5:53 AM -4.4 °C -8.3 °C -6.7 °C 84% 1004.1 hPa 12.9 km NW 9.3 km/h / 2.6 m/s - 0.0 mm Snow Light Snow
6:53 AM -5.0 °C -11.6 °C -7.8 °C 81% 1004.5 hPa 11.3 km NW 20.4 km/h / 5.7 m/s - 0.0 mm Snow Light Snow
7:53 AM -5.0 °C -11.6 °C -7.8 °C 81% 1004.9 hPa 16.1 km NW 20.4 km/h / 5.7 m/s - 0.0 mm   Overcast
8:53 AM -5.0 °C -10.1 °C -7.2 °C 85% 1005.4 hPa 16.1 km WNW 13.0 km/h / 3.6 m/s - N/A   Overcast
9:53 AM -3.9 °C -8.7 °C -7.2 °C 78% 1005.4 hPa 16.1 km WNW 13.0 km/h / 3.6 m/s - N/A   Overcast
10:53 AM -3.9 °C -9.9 °C -7.2 °C 78% 1005.5 hPa 16.1 km West 18.5 km/h / 5.1 m/s - N/A   Overcast
11:53 AM -2.8 °C -7.4 °C -7.2 °C 72% 1005.3 hPa 16.1 km NW 13.0 km/h / 3.6 m/s - N/A   Overcast
12:53 PM -3.3 °C -8.8 °C -7.2 °C 75% 1005.0 hPa 16.1 km WNW 16.7 km/h / 4.6 m/s - N/A   Overcast
1:53 PM -2.8 °C -6.4 °C -7.2 °C 72% 1005.0 hPa 16.1 km WNW 9.3 km/h / 2.6 m/s - N/A   Overcast
2:53 PM -3.3 °C -8.0 °C -7.2 °C 75% 1005.2 hPa 16.1 km NW 13.0 km/h / 3.6 m/s - N/A   Overcast
3:53 PM -3.3 °C -6.4 °C -7.2 °C 75% 1005.4 hPa 16.1 km NW 7.4 km/h / 2.1 m/s - N/A   Overcast
4:21 PM -3.0 °C -6.0 °C -7.0 °C 74% 1004.3 hPa 16.1 km North 7.4 km/h / 2.1 m/s - N/A   Overcast
4:53 PM -3.9 °C - -7.2 °C 78% 1005.6 hPa 16.1 km Calm Calm - N/A   Overcast
5:15 PM -4.0 °C - -7.0 °C 80% 1004.6 hPa 16.1 km Calm Calm - N/A   Overcast
5:53 PM -3.9 °C - -7.2 °C 78% 1006.2 hPa 16.1 km Calm Calm - N/A   Overcast
6:53 PM -3.9 °C - -7.2 °C 78% 1006.4 hPa 16.1 km Calm Calm - N/A   Overcast
7:53 PM -3.9 °C - -7.2 °C 78% 1006.5 hPa 16.1 km Calm Calm - N/A   Overcast
8:53 PM -3.9 °C - -7.2 °C 78% 1006.8 hPa 16.1 km Calm Calm - N/A   Overcast
9:53 PM -4.4 °C -6.8 °C -7.2 °C 81% 1006.9 hPa 16.1 km North 5.6 km/h / 1.5 m/s - N/A   Overcast
10:18 PM -4.0 °C -6.4 °C -7.0 °C 80% 1005.6 hPa 16.1 km North 5.6 km/h / 1.5 m/s - N/A   Overcast
10:46 PM -4.0 °C -7.2 °C -7.0 °C 80% 1005.6 hPa 16.1 km NNW 7.4 km/h / 2.1 m/s - N/A   Overcast
10:53 PM -4.4 °C -6.8 °C -7.2 °C 81% 1007.0 hPa 14.5 km NNW 5.6 km/h / 1.5 m/s - N/A   Overcast
11:53 PM -5.6 °C -8.2 °C -6.7 °C 92% 1006.7 hPa 11.3 km North 5.6 km/h / 1.5 m/s - 0.0 mm Snow Light Snow